Weather History for Mason City, IA

Change the Weather History Date:

Saturday, November 16, 2013

  Actual Average Record
Temperature  
Mean Temperature 49 °F 33 °F  
Max Temperature 60 °F 43 °F 74 °F (1953)
Min Temperature 37 °F 24 °F -3 °F (1959)
Degree Days  
Heating Degree Days 16 32  
Month to date heating degree days 454 437  
Since 1 July heating degree days 1112 1175  
Cooling Degree Days 0 0  
Month to date cooling degree days 0 0  
Year to date cooling degree days 718 616  
Moisture  
Dew Point 45 °F    
Average Humidity 83    
Maximum Humidity 100    
Minimum Humidity 66    
Precipitation  
Precipitation T in 0.06 in 1.47 in (1996)
Month to date precipitation 1.14 1.07  
Year to date precipitation 37.54 33.15  
Snow  
Snow 0.00 in 0.20 in 6.80 in (1909)
Month to date snowfall 1.0 1.4  
Since 1 July snowfall 1.0 1.8  
Since 1 September snowfall 1.0 1.8  
Snow Depth 0.00 in    
Sea Level Pressure  
Sea Level Pressure 29.44 in    
Wind  
Wind Speed 15 mph (SSE)    
Max Wind Speed 24 mph    
Max Gust Speed 34 mph    
Visibility 6 miles    
Events Rain    
T = Trace of Precipitation, MM = Missing Value Source: NWS Daily Summary

Daily Weather History Graph

Daily Weather History Graph

Search for Another Location

Airport:

Trip Planner

Search our weather history database for the weather conditions in past years. The results will help you decide how hot, cold, wet, or windy it might be!

Date:

Astronomy

Nov. 16, 2013 Rise Set
Actual Time 7:07 AM CST 4:48 PM CST
Civil Twilight 6:36 AM CST 5:18 PM CST
Nautical Twilight 6:02 AM CST 5:53 PM CST
Astronomical Twilight 5:28 AM CST 6:27 PM CST
Moon 4:24 PM CST (11/16) 6:03 AM CST (11/16)
Length of Visible Light 10h 41m
Length of Day
9h 40m
Waxing Gibbous, 99% of the Moon is Illuminated
Nov 16
Waxing Gibbous
Nov 17
Full
Nov 25
Last Quarter
Dec 2
New
Dec 9
First Quarter

Hourly Weather History & Observations

Time (CST) Temp. Windchill Dew Point Humidity Pressure Visibility Wind Dir Wind Speed Gust Speed Precip Events Conditions
12:53 AM 37.9 °F 29.6 °F 34.0 °F 86% 29.68 in 10.0 mi SSE 13.8 mph - N/A   Overcast
1:53 AM 39.0 °F 31.0 °F 35.1 °F 86% 29.65 in 10.0 mi SSE 13.8 mph - N/A   Scattered Clouds
2:53 AM 37.9 °F 29.6 °F 36.0 °F 93% 29.65 in 10.0 mi SSE 13.8 mph - N/A   Clear
3:53 AM 37.9 °F 30.5 °F 36.0 °F 93% 29.62 in 9.0 mi SSE 11.5 mph - N/A   Clear
4:53 AM 37.9 °F 29.6 °F 37.0 °F 97% 29.60 in 7.0 mi SSE 13.8 mph - N/A   Scattered Clouds
5:00 AM 39.0 °F 31.0 °F 37.9 °F 96% 29.59 in 7.0 mi SSE 13.8 mph - N/A   Mostly Cloudy
5:11 AM 39.9 °F 31.4 °F 37.9 °F 93% 29.59 in 7.0 mi SSE 16.1 mph - N/A   Overcast
5:32 AM 41.0 °F 33.1 °F 39.0 °F 93% 29.58 in 7.0 mi SSE 15.0 mph - N/A   Overcast
5:53 AM 41.0 °F 32.8 °F 39.9 °F 96% 29.58 in 7.0 mi SSE 16.1 mph - N/A   Overcast
6:53 AM 43.0 °F 35.7 °F 42.1 °F 97% 29.55 in 6.0 mi SSE 15.0 mph - N/A   Overcast
7:53 AM 45.0 °F 37.4 °F 44.1 °F 97% 29.54 in 2.5 mi SSE 18.4 mph - N/A   Overcast
8:31 AM 46.0 °F 38.8 °F 45.0 °F 96% 29.52 in 2.5 mi SSE 18.4 mph - N/A   Overcast
8:53 AM 46.9 °F - 46.0 °F 97% 29.52 in 2.5 mi SSE 18.4 mph - N/A   Overcast
9:15 AM 46.9 °F - 46.0 °F 97% 29.51 in 1.5 mi SSE 20.7 mph 28.8 mph N/A   Overcast
9:53 AM 46.9 °F - 46.9 °F 100% 29.49 in 1.5 mi SSE 15.0 mph 24.2 mph N/A   Overcast
10:53 AM 46.9 °F - 46.9 °F 100% 29.46 in 1.2 mi SSE 18.4 mph - N/A   Overcast
11:53 AM 48.9 °F - 48.9 °F 100% 29.39 in 1.5 mi SSE 20.7 mph 26.5 mph N/A   Overcast
12:31 PM 51.1 °F - 51.1 °F 100% 29.36 in 2.0 mi SSE 19.6 mph 25.3 mph N/A   Overcast
12:47 PM 51.8 °F - 51.8 °F 100% 29.36 in 3.0 mi SSE 19.6 mph 25.3 mph N/A   Overcast
12:53 PM 52.0 °F - 51.1 °F 97% 29.36 in 3.0 mi SSE 17.3 mph - N/A   Overcast
1:22 PM 53.1 °F - 52.0 °F 96% 29.31 in 3.0 mi SE 21.9 mph 26.5 mph 0.00 in Rain Light Rain
1:25 PM 53.1 °F - 52.0 °F 96% 29.30 in 3.0 mi SE 21.9 mph 27.6 mph 0.00 in Rain Light Rain
1:38 PM 53.1 °F - 52.0 °F 96% 29.28 in 4.0 mi SE 21.9 mph 28.8 mph 0.00 in Rain Light Rain
1:53 PM 54.0 °F - 53.1 °F 97% 29.29 in 5.0 mi SSE 21.9 mph 31.1 mph 0.00 in   Mostly Cloudy
2:34 PM 55.0 °F - 54.0 °F 96% 29.29 in 6.0 mi SSE 18.4 mph - N/A   Mostly Cloudy
2:42 PM 55.0 °F - 54.0 °F 96% 29.28 in 6.0 mi SSE 17.3 mph - N/A   Overcast
2:53 PM 55.0 °F - 54.0 °F 96% 29.28 in 6.0 mi SSE 16.1 mph - N/A   Overcast
3:00 PM 55.9 °F - 54.0 °F 93% 29.28 in 6.0 mi SSE 16.1 mph - N/A   Overcast
3:53 PM 60.1 °F - 55.9 °F 86% 29.26 in 10.0 mi SSW 18.4 mph 25.3 mph N/A   Mostly Cloudy
4:53 PM 59.0 °F - 54.0 °F 83% 29.28 in 10.0 mi SSW 16.1 mph - N/A   Scattered Clouds
5:53 PM 55.9 °F - 46.0 °F 69% 29.34 in 10.0 mi WSW 18.4 mph - N/A   Clear
6:53 PM 52.0 °F - 42.1 °F 69% 29.38 in 10.0 mi WSW 17.3 mph - N/A   Clear
7:53 PM 50.0 °F - 39.9 °F 68% 29.39 in 10.0 mi SW 10.4 mph - N/A   Clear
8:53 PM 46.9 °F - 37.9 °F 71% 29.39 in 10.0 mi SSW 9.2 mph - N/A   Clear
9:53 PM 46.0 °F 40.6 °F 37.9 °F 73% 29.39 in 10.0 mi SSW 11.5 mph - N/A   Clear
10:53 PM 45.0 °F 40.6 °F 37.0 °F 74% 29.40 in 10.0 mi WSW 8.1 mph - N/A   Clear
11:53 PM 41.0 °F 34.7 °F 35.1 °F 79% 29.41 in 10.0 mi South 10.4 mph - N/A   Clear